Weather History for Stanley, ND

Change the Weather History Date:

Tuesday, July 23, 2013

  Actual Average (KMOT) Record (KMOT)
Temperature  
Mean Temperature 62 °F 70 °F  
Max Temperature 68 °F 83 °F 103 °F (2007)
Min Temperature 55 °F 58 °F 42 °F (1918)
Degree Days  
Heating Degree Days 4    
Cooling Degree Days 0 6  
Month to date cooling degree days 120  
Year to date cooling degree days 209  
Since 1 June cooling degree days 193  
Growing Degree Days 12 (Base 50)    
Moisture  
Dew Point 58 °F    
Average Humidity 88    
Maximum Humidity 100    
Minimum Humidity 68    
Precipitation  
Precipitation 0.00 in 0.07 in 2.86 in (1970)
Month to date precipitation 1.94  
Year to date precipitation 10.91  
Sea Level Pressure  
Sea Level Pressure 30.07 in    
Wind  
Wind Speed 5 mph (SE)    
Max Wind Speed 10 mph    
Max Gust Speed -    
Visibility 10 miles    
Events Rain    
T = Trace of Precipitation, MM = Missing Value Source: NWS Daily Summary

Daily Weather History Graph

Daily Weather History Graph

Search for Another Location

Airport:

Trip Planner

Search our weather history database for the weather conditions in past years. The results will help you decide how hot, cold, wet, or windy it might be!

Date:

Astronomy

Jul. 23, 2013 Rise Set
Actual Time 6:13 AM CDT 9:37 PM CDT
Civil Twilight 5:35 AM CDT 10:15 PM CDT
Nautical Twilight 4:44 AM CDT 11:06 PM CDT
Astronomical Twilight 3:37 AM CDT 12:11 AM CDT
Moon 9:53 PM CDT (7/23) 7:35 AM CDT (7/23)
Length of Visible Light 16h 40m
Length of Day
15h 23m
Full, 99% of the Moon is Illuminated
Jul 23
Full
Jul 29
Last Quarter
Aug 6
New
Aug 14
First Quarter
Aug 20
Full

Hourly Weather History & Observations

Time (CDT) Temp. Dew Point Humidity Pressure Visibility Wind Dir Wind Speed Gust Speed Precip Events Conditions
12:15 AM 59.0 °F 59.0 °F 100% 30.02 in 10.0 mi ESE 4.6 mph - N/A   Overcast
12:35 AM 57.2 °F 57.2 °F 100% 30.03 in 10.0 mi ESE 3.5 mph - N/A   Overcast
12:55 AM 57.2 °F 57.2 °F 100% 30.03 in 10.0 mi East 3.5 mph - N/A   Overcast
1:15 AM 57.2 °F 57.2 °F 100% 30.02 in 10.0 mi East 5.8 mph - N/A   Overcast
1:35 AM 57.2 °F 57.2 °F 100% 30.02 in 10.0 mi East 4.6 mph - N/A   Scattered Clouds
1:55 AM 57.2 °F 57.2 °F 100% 30.01 in 10.0 mi ENE 4.6 mph - N/A   Clear
2:15 AM 57.2 °F 57.2 °F 100% 30.02 in 10.0 mi ESE 3.5 mph - N/A   Mostly Cloudy
2:35 AM 57.2 °F 57.2 °F 100% 30.03 in 10.0 mi East 3.5 mph - N/A   Overcast
2:55 AM 57.2 °F 57.2 °F 100% 30.04 in 10.0 mi Calm Calm - N/A   Overcast
3:15 AM 57.2 °F 57.2 °F 100% 30.04 in 10.0 mi SE 3.5 mph - N/A   Overcast
3:35 AM 57.2 °F 57.2 °F 100% 30.04 in 10.0 mi ESE 4.6 mph - N/A   Overcast
3:55 AM 57.2 °F 57.2 °F 100% 30.05 in 10.0 mi Calm Calm - N/A   Overcast
4:15 AM 57.2 °F 57.2 °F 100% 30.05 in 10.0 mi Calm Calm - N/A   Overcast
4:35 AM 55.4 °F 55.4 °F 100% 30.05 in 10.0 mi East 3.5 mph - N/A   Mostly Cloudy
4:55 AM 55.4 °F 55.4 °F 100% 30.05 in 10.0 mi East 3.5 mph - N/A   Mostly Cloudy
5:15 AM 55.4 °F 55.4 °F 100% 30.05 in 10.0 mi ENE 3.5 mph - N/A   Overcast
5:35 AM 55.4 °F 55.4 °F 100% 30.05 in 10.0 mi East 4.6 mph - N/A   Overcast
5:55 AM 55.4 °F 55.4 °F 100% 30.05 in 10.0 mi East 4.6 mph - N/A   Overcast
6:15 AM 55.4 °F 55.4 °F 100% 30.05 in 10.0 mi ENE 3.5 mph - N/A   Scattered Clouds
6:35 AM 55.4 °F 55.4 °F 100% 30.05 in 10.0 mi East 4.6 mph - N/A   Clear
6:55 AM 55.4 °F 55.4 °F 100% 30.06 in 10.0 mi East 4.6 mph - N/A   Clear
7:15 AM 55.4 °F 55.4 °F 100% 30.06 in 10.0 mi East 3.5 mph - N/A   Clear
7:35 AM 57.2 °F 57.2 °F 100% 30.06 in 10.0 mi East 4.6 mph - N/A   Clear
7:55 AM 57.2 °F 57.2 °F 100% 30.08 in 10.0 mi ESE 3.5 mph - N/A   Clear
8:15 AM 57.2 °F 57.2 °F 100% 30.08 in 10.0 mi Calm Calm - N/A   Mostly Cloudy
8:35 AM 59.0 °F 59.0 °F 100% 30.08 in 10.0 mi SSE 5.8 mph - N/A   Overcast
8:55 AM 60.8 °F 60.8 °F 100% 30.08 in 10.0 mi SSE 6.9 mph - N/A   Overcast
9:15 AM 60.8 °F 59.0 °F 94% 30.08 in 10.0 mi SSE 6.9 mph - N/A   Overcast
9:35 AM 62.6 °F 59.0 °F 88% 30.08 in 10.0 mi South 9.2 mph - N/A   Mostly Cloudy
9:55 AM 64.4 °F 59.0 °F 83% 30.08 in 10.0 mi South 10.4 mph - N/A   Partly Cloudy
10:15 AM 64.4 °F 59.0 °F 83% 30.09 in 10.0 mi South 9.2 mph - N/A   Clear
10:35 AM 66.2 °F 59.0 °F 78% 30.09 in 10.0 mi South 8.1 mph - N/A   Clear
10:55 AM 66.2 °F 57.2 °F 73% 30.09 in 10.0 mi SSW 8.1 mph - N/A   Clear
11:15 AM 68.0 °F 57.2 °F 68% 30.10 in 10.0 mi South 9.2 mph - N/A   Scattered Clouds
11:35 AM 66.2 °F 57.2 °F 73% 30.10 in 10.0 mi SSE 9.2 mph - N/A   Mostly Cloudy
11:55 AM 68.0 °F 57.2 °F 68% 30.09 in 10.0 mi SSE 4.6 mph - N/A   Mostly Cloudy
12:15 PM 68.0 °F 57.2 °F 68% 30.10 in 10.0 mi South 5.8 mph - N/A   Overcast
12:35 PM 66.2 °F 57.2 °F 73% 30.11 in 10.0 mi ESE 5.8 mph - N/A   Overcast
12:55 PM 66.2 °F 57.2 °F 73% 30.11 in 10.0 mi SE 4.6 mph - N/A   Overcast
1:15 PM 66.2 °F 57.2 °F 73% 30.10 in 10.0 mi South 8.1 mph - N/A   Overcast
1:35 PM 68.0 °F 57.2 °F 68% 30.10 in 10.0 mi SE 5.8 mph - N/A   Overcast
1:55 PM 68.0 °F 57.2 °F 68% 30.10 in 10.0 mi SSE 5.8 mph - N/A   Overcast
2:15 PM 68.0 °F 57.2 °F 68% 30.10 in 10.0 mi SSE 6.9 mph - N/A   Overcast
2:35 PM 68.0 °F 57.2 °F 68% 30.10 in 10.0 mi South 8.1 mph - N/A   Overcast
3:15 PM 68.0 °F 57.2 °F 68% 30.10 in 10.0 mi South 6.9 mph - N/A   Scattered Clouds
3:35 PM 68.0 °F 57.2 °F 68% 30.10 in 10.0 mi South 8.1 mph - N/A   Mostly Cloudy
3:55 PM 68.0 °F 57.2 °F 68% 30.10 in 10.0 mi South 6.9 mph - N/A   Mostly Cloudy
4:15 PM 66.2 °F 57.2 °F 73% 30.09 in 10.0 mi SSE 4.6 mph - N/A   Mostly Cloudy
4:35 PM 66.2 °F 59.0 °F 78% 30.09 in 10.0 mi SE 6.9 mph - N/A   Mostly Cloudy
4:55 PM 66.2 °F 59.0 °F 78% 30.08 in 10.0 mi SE 3.5 mph - N/A   Partly Cloudy
5:15 PM 66.2 °F 60.8 °F 83% 30.08 in 10.0 mi SE 6.9 mph - N/A Rain Light Rain
5:35 PM 68.0 °F 59.0 °F 73% 30.07 in 10.0 mi SE 4.6 mph - N/A   Mostly Cloudy
5:55 PM 66.2 °F 59.0 °F 78% 30.07 in 10.0 mi SE 5.8 mph - N/A   Overcast
6:15 PM 66.2 °F 60.8 °F 83% 30.07 in 10.0 mi SE 6.9 mph - N/A   Overcast
6:35 PM 68.0 °F 59.0 °F 73% 30.07 in 10.0 mi SSE 5.8 mph - N/A   Overcast
6:55 PM 68.0 °F 59.0 °F 73% 30.08 in 10.0 mi South 3.5 mph - N/A   Overcast
7:15 PM 66.2 °F 59.0 °F 78% 30.07 in 10.0 mi South 5.8 mph - N/A   Overcast
7:35 PM 66.2 °F 60.8 °F 83% 30.07 in 10.0 mi South 5.8 mph - N/A   Mostly Cloudy
7:55 PM 66.2 °F 62.6 °F 88% 30.07 in 10.0 mi South 4.6 mph - N/A   Scattered Clouds
8:15 PM 66.2 °F 59.0 °F 78% 30.07 in 10.0 mi South 3.5 mph - N/A   Partly Cloudy
8:35 PM 64.4 °F 60.8 °F 88% 30.07 in 10.0 mi WSW 3.5 mph - N/A   Partly Cloudy
8:55 PM 64.4 °F 62.6 °F 94% 30.08 in 10.0 mi Calm Calm - N/A   Mostly Cloudy
9:15 PM 64.4 °F 62.6 °F 94% 30.07 in 10.0 mi SSW 3.5 mph - N/A   Mostly Cloudy
9:35 PM 62.6 °F 62.6 °F 100% 30.08 in 10.0 mi SW 3.5 mph - N/A   Partly Cloudy
9:55 PM 60.8 °F 60.8 °F 100% 30.08 in 10.0 mi Calm Calm - N/A   Clear
10:15 PM 59.0 °F 59.0 °F 100% 30.09 in 10.0 mi Calm Calm - N/A   Clear
10:35 PM 59.0 °F 59.0 °F 100% 30.09 in 10.0 mi Calm Calm - N/A   Clear
10:55 PM 57.2 °F 57.2 °F 100% 30.10 in 10.0 mi Calm Calm - N/A   Clear
11:15 PM 57.2 °F 57.2 °F 100% 30.10 in 10.0 mi WSW 3.5 mph - N/A   Clear
11:35 PM 57.2 °F 57.2 °F 100% 30.10 in 10.0 mi SW 3.5 mph - N/A   Clear
11:55 PM 55.4 °F 55.4 °F 100% 30.10 in 10.0 mi SW 3.5 mph - N/A   Clear